Location: Lane
(33.5226°N, 79.8788°W)
Time: 05:36:42
(UTC+00:00)

Vanguard 2 - Pass Details

Date: 09 October 2022
Orbit: 553 x 2933 km, 32.9° (Epoch: 26 November)

Event Time Altitude Azimuth Distance (km) Brightness Sun altitude
Rises 18:32:44 0° 271° (W) 4,343 11.7 45.1°
Reaches altitude 10° 18:35:10 10° 271° (W) 3,625 11.4 44.8°
Maximum altitude 18:45:11 87° 184° (S) 2,097 10.6 43.7°
Drops below altitude 10° 19:01:24 10° 96° (E) 5,562 11.7 41.6°
Sets 19:06:08 0° 97° (E) 6,718 12.1 41.0°
